C/2015 V4 ( PanSTARRS )

Japanese version
Home page
Updated on March 25, 2017

---------------------------------------------------------------------

* Profile

Discovery Date November 3, 2015
Magnitude 20.4 mag
Discoverer Pan-STARRS 1 telescope (Haleakala)

* Pictures

* Orbital Elements

Epoch 2016 Sept. 9.0 TT = JDT 2457640.5
T 2016 Aug. 28.25491 TT                                 MPCW
q   5.4594827            (2000.0)            P               Q
n   0.01234091     Peri.  306.93379     -0.60017996     -0.79986342
a  18.5454715      Node   179.89572     +0.63674476     -0.47657996
e   0.7056164      Incl.   60.75161     -0.48408689     +0.36481510
P  79.87
From 76 observations 2015 Nov. 3-2017 Mar. 7, mean residual 0".4.

* Magnitudes Graph

        m1 = 8.3 + 5 log d + 10.0 log r

---------------------------------------------------------------------

The orbital elements are published on M.P.E.C. 2017-E59.
The magnitudes graphs are made with Comet for Windows.

---------------------------------------------------------------------

Copyright(C) Seiichi Yoshida (comet@aerith.net). All rights reserved.